Regional Weather Roundup
Issued by NWS

Home | Current Version | Previous Version | Graphics & Text | Print | Product List | Glossary On
Versions: 1 2 3 4 5 6 7 8 9 10 11 12 13 14 15 16 17 18 19 20 21 22 23 24 25 26 27 28 29 30 31 32 33 34 35 36 37 38 39 40 41 42 43 44 45 46 47 48 49 50
682
ASUS43 KLSX 051807
RWRMO

WEATHER SUMMARY FOR MISSOURI
NATIONAL WEATHER SERVICE SPRINGFIELD MO
1200 PM CST FRI FEB 05 2016

NOTE: "FAIR" INDICATES FEW OR NO CLOUDS BELOW 12,000 FEET WITH NO
       SIGNIFICANT WEATHER AND/OR OBSTRUCTIONS TO VISIBILITY.
       CURRENT SKY AND/OR WEATHER CONDITIONS ARE NOT AVAILABLE FOR
       CHILLICOTHE AND FARMINGTON.

MOZ001>031-035>038-043-044-053-054-051900-
...NORTHERN AND WESTERN MISSOURI...

CITY           SKY/WX    TMP DP  RH WIND       PRES   REMARKS
KANSAS CTY INT CLOUDY    33  21  61 S8        30.38F WCI  26
6HR MIN TEMP:  21; 6HR MAX TEMP:  33;

KANSAS C DTWN  CLOUDY    35  20  54 SE6       30.40F
6HR MIN TEMP:  25; 6HR MAX TEMP:  35;

LEE`S SUMMIT   MOSUNNY   33  21  61 VRB3      30.40F
6HR MIN TEMP:  23; 6HR MAX TEMP:  33;

ST JOSEPH      CLOUDY    31  23  72 S8        30.39F WCI  23
6HR MIN TEMP:  22; 6HR MAX TEMP:  32;

CHILLICOTHE      N/A     32  23  69 VRB3      30.43F
6HR MIN TEMP:  23; 6HR MAX TEMP:  32;

KIRKSVILLE     CLOUDY    30  17  58 S5        30.41S WCI  25
6HR MIN TEMP:  18; 6HR MAX TEMP:  30;


$$
MOZ066>068-077>081-088>096-101>105-051900-
...SOUTHWEST MISSOURI...

CITY           SKY/WX    TMP DP  RH WIND       PRES   REMARKS
SPRINGFIELD    CLOUDY    48  18  30 W16       30.38F
6HR MIN TEMP:  22; 6HR MAX TEMP:  48;

JOPLIN         MOSUNNY   48  21  34 SW14      30.39F
6HR MIN TEMP:  26; 6HR MAX TEMP:  48;


$$
MOZ032>034-039>042-045>050-055>058-069>072-051900-
...CENTRAL MISSOURI...

CITY           SKY/WX    TMP DP  RH WIND       PRES   REMARKS
COLUMBIA       MOSUNNY   34  19  54 CALM      30.42F
6HR MIN TEMP:  22; 6HR MAX TEMP:  34;

JEFFERSON CITY CLOUDY    34  20  56 CALM      30.44F
6HR MIN TEMP:  22; 6HR MAX TEMP:  37;

ROLLA          CLOUDY    38  21  50 W6        30.38F
6HR MIN TEMP:  24; 6HR MAX TEMP:  38; 6HR PCP: TRACE;

SEDALIA        MOSUNNY   35  20  54 E7        30.42F WCI  29
6HR MIN TEMP:  23; 6HR MAX TEMP:  35;

WHITEMAN AFB   CLOUDY    35  22  61 S5        30.40F
WARRENSBURG    PTSUNNY   34  23  64 SE5       30.41F WCI  30
OSAGE BEACH    MOSUNNY   37  21  52 CALM      30.41F

$$
MOZ051-052-059>065-051900-
...EAST CENTRAL MISSOURI...

CITY           SKY/WX    TMP DP  RH WIND       PRES   REMARKS
ST LOUIS INTL  PTSUNNY   39  20  46 W5        30.43F
6HR MIN TEMP:  27; 6HR MAX TEMP:  39;

SPIRIT OF STL  PTSUNNY   36  21  54 VRB3      30.42F
6HR MIN TEMP:  23; 6HR MAX TEMP:  37;

ST CHARLES     SUNNY     34  22  61 VRB3      30.43F
6HR MIN TEMP:  24; 6HR MAX TEMP:  35;


$$
MOZ072>076-082>087-097>100-106>115-051900-
...SOUTH CENTRAL AND SOUTHEAST MISSOURI...

CITY           SKY/WX    TMP DP  RH WIND       PRES   REMARKS
CAPE GIRARDEAU SUNNY     43  25  49 VRB3      30.43F
6HR MIN TEMP:  21; 6HR MAX TEMP:  43;

FARMINGTON     SUNNY     41  22  46 CALM      30.39F
6HR MIN TEMP:  19; 6HR MAX TEMP:  41;

POPLAR BLUFF   CLOUDY    44  24  45 VRB6      30.42F
6HR MIN TEMP:  21; 6HR MAX TEMP:  44;

WEST PLAINS    MOSUNNY   47  16  29 W13G23    30.40F
6HR MIN TEMP:  25; 6HR MAX TEMP:  47;


$$



USA.gov is the U.S. government's official web portal to all federal, state and local government web resources and services.